Miscellaneous Local Product
Issued by NWS North Platte, NE

Home | Current Version | Previous Version | Text Only | Print | Product List | Glossary On
Versions: 1 2 3 4 5 6 7 8 9 10 11 12 13 14 15 16 17 18 19 20 21 22 23 24 25 26 27 28 29 30 31 32 33 34 35 36 37 38 39 40 41 42 43 44 45 46 47 48 49 50
000
AXUS43 KLBF 281610
MISLBF


WESTERN AND NORTH CENTRAL NEBRASKA HOURLY WEATHER ROUNDUP
NATIONAL WEATHER SERVICE NORTH PLATTE NE
1000 AM CST WED JAN 28 2015

***STATIONS NOT REPORTING VARIABLES SUCH AS SKY/WEATHER OR
PRESSURE ARE PROVIDED BY THE NEBRASKA DEPARTMENT OF
ROADS...RAWS...AND APRS NETWORKS...AND ARE NOT UNDER
NATIONAL WEATHER SERVICE QUALITY CONTROL***

...OBSERVATIONS IN AND NEAR THE EASTERN PANHANDLE OF NEBRASKA...

CITY           SKY/WX    TMP DP  RH WIND       PRES   REMARKS
PINE RIDGE     MOSUNNY   49  30  48 W10       29.88S
CHADRON        PTSUNNY   49  34  56 W21G28    29.90S
ALLIANCE       PTSUNNY   47  34  60 W23G29    29.91S
SIDNEY         PTSUNNY   52  31  44 NW26G37   29.97R
WHITECLAY        N/A     47  30  51 W18         N/A
CRESCENT LAKE    N/A     51  32  48 W20G28      N/A
LISCO            N/A     53  30  40 W29         N/A
LEWELLEN         N/A     52  34  50 NW20        N/A
$$

...OBSERVATIONS IN NORTH CENTRAL NEBRASKA...

CITY           SKY/WX    TMP DP  RH WIND       PRES   REMARKS
VALENTINE      PTSUNNY   50  33  52 W16       29.78R
THEDFORD       PTSUNNY   53  33  47 W18G25    29.82R
AINSWORTH      PTSUNNY   49  32  52 W14       29.76S
O`NEILL        PTSUNNY   50  38  63 W8        29.73F
ORD            MOSUNNY   37  31  78 CALM      29.77F
BROKEN BOW     PTSUNNY   56  34  43 W16G24    29.79F
BROWNLEE         N/A     54  35  48 W20         N/A
SPRINGVIEW       N/A     48  36  64 W3G15       N/A
HALSEY           N/A     51  32  48 W10G18      N/A
BREWSTER         N/A     55  34  45 NW23        N/A
ROSE             N/A     51  37  57 SW7         N/A
NEWPORT          N/A     51  34  52 W16         N/A
SARGENT          N/A     50  37  59 W9          N/A
COMSTOCK         N/A     59  37  43 W12         N/A
CHAMBERS         N/A     51  33  51 W3G14       N/A
EWING            N/A     38  34  87 S5          N/A  WCI  34
$$

...OBSERVATIONS IN SOUTHWEST NEBRASKA AND FAR NORTHEAST COLORADO...

CITY           SKY/WX    TMP DP  RH WIND       PRES   REMARKS
WRAY           FAIR      41  33  74 SW9       29.96S
HOLYOKE        FAIR      59  34  38 NW21G28   29.95S
IMPERIAL       PTSUNNY   51  33  50 NW16G22   29.91S
OGALLALA       MOSUNNY   54  35  47 NW33G45   29.88F
NORTH PLATTE   PTSUNNY   45  35  68 W10       29.86S
MCCOOK         CLOUDY    51  34  52 W13       29.88S
LEXINGTON      PTSUNNY   46  35  65 W9        29.83S
BRADY            N/A     44  35  70 MISG        N/A
GOTHENBURG       N/A     49  32  52 W12         N/A
CALLAWAY         N/A     53  36  53 W20         N/A
$$

...NORTH PLATTE AREA...

CITY           SKY/WX    TMP DP  RH WIND       PRES   REMARKS
AIRPORT        PTSUNNY   45  35  68 W10       29.86S
DOWNTOWN         N/A     46  34  62 W3          N/A
$$

...SOME WEATHER OBSERVATIONS FROM AROUND THE REGION...

CITY           SKY/WX    TMP DP  RH WIND       PRES   REMARKS
DENVER         MOSUNNY   54  20  26 W29G39    30.05R
LARAMIE        MOSUNNY   39  26  59 W25G31    30.10S WCI  28
CHEYENNE       SUNNY     45  27  49 W15       30.07F
SCOTTSBLUFF      N/A    N/A N/A N/A MISG      29.97S
RAPID CITY     CLOUDY    55  28  35 NW21      29.84R
PIERRE         PTSUNNY   37  34  89 SW3       29.72F
WINNER         FAIR      50  33  52 W16       29.73S
SIOUX FALLS    CLOUDY    35  31  85 S15       29.76F WCI  25
OMAHA          PTSUNNY   38  30  73 SE13      29.85S WCI  30
GRAND ISLAND   MOSUNNY   37  31  78 W5        29.80F WCI  33
KANSAS CITY    PTSUNNY   52  36  54 S14       29.90F
WICHITA        MOSUNNY   57  38  48 S15       29.88F
HAYS           PTSUNNY   54  32  43 NW13      29.85S
LIBERAL        CLOUDY    52  36  54 NW22      29.98R
GOODLAND       CLOUDY    45  32  60 NW13      29.97S
$$



USA.gov is the U.S. government's official web portal to all federal, state and local government web resources and services.